Theta_e
310 310 309 309 308 306 306 306 304 302 302 301 301 301 301 300 300 300 301 301 302 302 306 310 310 312 315 320 320 322 322 319 321 318 324 327 336 343 348 346 345 345 352 350 346 349 342
309 309 309 309 308 306 305 305 304 302 301 301 301 301 301 300 300 300 301 302 302 304 314 318 316 314 316 323 324 323 328 326 321 320 324 326 333 339 345 345 343 344 345 348 348 350 343
309 308 308 308 308 304 302 301 301 301 300 301 301 301 301 300 300 300 301 302 303 308 316 318 319 316 318 322 325 321 323 328 324 323 324 325 329 336 342 345 343 341 344 344 346 346 343
308 308 308 308 306 303 302 302 301 301 301 302 302 301 300 300 300 301 303 304 307 311 317 317 319 319 321 326 324 324 318 324 324 327 325 325 329 333 337 341 343 342 341 346 346 346 342
308 308 308 307 306 303 302 302 302 302 302 302 302 302 300 300 300 303 306 309 310 312 319 318 321 320 327 325 326 325 320 322 326 330 329 328 329 332 334 340 343 341 343 344 346 344 342
308 307 307 307 305 303 303 303 303 303 302 302 302 302 301 300 300 307 309 312 312 315 321 321 323 326 324 327 326 325 324 322 327 331 333 333 333 332 334 338 346 342 341 340 344 344 341
307 307 307 305 304 304 303 303 303 303 302 302 302 302 301 300 300 308 309 313 314 322 314 321 327 324 326 327 325 324 324 322 328 333 336 335 337 336 333 336 338 340 339 337 338 340 342
306 306 305 304 304 304 303 303 303 302 302 302 302 302 301 300 302 309 310 313 311 310 312 312 314 315 319 325 326 325 323 323 329 335 336 337 338 335 333 334 336 338 338 336 335 336 338
306 305 305 304 304 303 303 302 302 302 301 301 301 301 302 302 305 310 312 311 309 310 312 311 313 314 315 318 323 327 323 323 327 334 338 338 337 334 335 336 333 337 338 336 336 335 337
305 305 306 304 303 302 303 304 303 302 302 301 301 301 302 303 308 311 311 308 308 309 312 313 316 317 315 317 320 327 323 324 329 332 338 337 334 334 335 334 334 333 335 334 335 336 337
304 306 306 304 303 303 304 304 303 302 302 302 302 302 303 304 308 312 308 307 308 311 315 321 320 321 319 316 321 323 326 324 330 329 334 338 334 332 330 332 330 328 328 331 331 334 335
305 304 303 304 305 303 303 303 302 302 302 302 302 303 305 309 310 309 307 307 309 313 313 320 322 322 322 318 318 324 327 324 328 328 330 335 334 330 328 328 327 326 326 327 328 330 336
306 303 304 304 303 303 302 302 302 302 303 303 302 304 306 308 310 307 307 309 309 311 313 317 318 318 320 323 319 320 327 328 326 328 333 332 335 333 328 328 327 326 326 328 329 330 330
303 303 303 303 303 302 301 302 302 302 303 303 303 307 308 309 307 307 308 309 309 310 313 313 313 314 318 322 324 321 324 329 323 325 329 331 331 332 328 328 329 327 327 329 332 331 328
303 303 303 303 303 303 302 302 302 302 303 303 305 310 311 310 307 308 310 310 311 312 310 310 311 315 319 321 321 325 324 328 326 324 330 330 331 329 329 328 329 328 328 328 327 328 328
301 302 303 303 303 303 303 303 303 302 303 303 306 310 312 309 307 309 311 309 310 309 308 308 310 311 313 314 317 321 327 327 327 324 325 329 331 329 329 329 328 329 329 328 329 333 333
301 302 302 302 303 303 303 304 304 304 304 305 310 313 310 309 308 310 309 308 309 308 309 309 308 309 311 316 317 320 325 328 325 327 326 325 329 330 330 330 329 329 331 329 328 329 331
301 301 302 302 302 302 302 303 303 303 304 306 310 314 310 308 310 309 308 307 307 309 309 308 308 308 312 313 316 319 325 326 323 322 327 327 326 331 332 331 329 329 330 331 332 336 331
301 301 301 302 302 302 301 301 302 301 303 306 312 313 311 308 309 308 308 307 306 309 309 307 308 309 309 311 315 318 320 320 320 322 325 327 331 333 334 333 331 331 329 330 331 330 336
301 301 301 301 301 302 301 301 302 302 302 305 312 313 312 309 309 309 308 307 308 309 310 308 307 309 309 310 311 315 317 319 318 320 329 324 329 334 336 335 334 333 330 330 330 332 332
300 300 300 301 301 301 301 302 302 304 302 307 311 311 309 310 310 309 308 309 310 309 308 306 308 309 309 309 311 312 314 314 317 322 321 326 332 332 331 333 333 330 330 330 332 333 334
300 300 300 300 301 301 301 302 304 304 304 307 310 311 310 310 310 309 308 309 309 307 306 306 308 308 307 307 310 312 312 313 317 316 318 322 330 332 334 333 333 334 330 330 330 330 331
300 300 300 300 301 301 301 302 304 305 305 307 307 304 308 308 310 310 310 309 307 308 308 306 308 307 306 307 308 308 309 309 311 313 316 320 326 331 335 334 334 336 333 331 330 330 330
300 300 300 300 300 301 302 305 306 306 305 307 306 304 305 309 309 310 310 310 309 308 307 307 307 308 308 308 308 308 309 310 311 313 314 317 322 327 332 334 338 334 333 332 331 330 331
299 300 303 303 304 304 304 307 306 306 306 307 307 304 304 309 309 310 310 310 310 309 308 309 309 310 308 308 308 310 311 311 312 313 313 315 319 324 332 334 334 334 333 332 332 333 332
303 303 303 303 303 303 305 307 307 307 306 307 308 306 304 306 308 308 311 310 311 311 309 308 309 309 308 308 309 313 314 317 312 312 313 314 317 320 327 332 335 333 331 330 331 333 342
303 302 302 302 303 305 307 306 307 307 307 307 308 307 303 305 306 307 309 311 310 311 312 309 309 309 309 312 312 312 313 314 316 314 314 315 317 319 323 327 331 330 329 329 333 344 340
302 302 302 302 305 307 306 306 307 307 307 307 308 308 305 306 305 307 308 309 310 310 311 310 310 311 313 315 316 318 316 315 315 316 317 316 317 319 320 325 329 324 327 335 337 331 331
302 302 303 306 306 306 306 306 307 307 308 308 309 309 308 306 307 307 307 307 308 309 310 309 309 309 309 311 314 313 313 312 315 316 316 317 318 318 319 322 328 322 323 322 323 325 325
Wind_Speed
21 22 22 23 23 24 25 26 26 28 29 30 32 33 35 36 37 37 37 41 29 32 26 20 16 11 3 10 13 17 9 4 30 26 28 23 24 24 24 21 20 21 22 22 12 26 6
21 22 23 23 24 25 26 27 27 29 30 32 34 35 37 38 39 39 41 35 29 30 20 16 9 7 7 18 18 22 8 17 23 30 30 27 21 23 22 23 22 20 18 17 21 30 9
21 22 22 23 24 25 27 28 28 30 32 34 36 38 40 40 40 41 38 27 30 25 18 16 10 11 15 24 11 11 21 19 25 30 25 32 30 23 23 22 23 21 19 16 14 14 12
21 22 22 23 24 26 28 29 30 31 33 35 37 39 41 42 41 43 31 29 29 19 17 16 11 12 10 14 27 24 17 21 22 24 31 29 27 21 24 19 22 20 20 18 18 18 13
21 22 23 24 26 28 30 31 32 33 35 36 38 40 43 43 42 34 32 33 27 14 14 3 11 13 10 6 23 29 22 24 24 24 27 30 23 22 20 21 20 21 19 22 21 20 19
22 23 24 25 26 28 30 31 32 33 35 37 39 41 44 42 40 29 33 34 17 5 3 7 16 9 12 15 15 27 29 25 22 20 21 23 17 20 21 19 21 22 21 19 22 19 22
22 22 24 25 26 28 29 31 32 34 35 36 38 38 40 41 35 25 32 24 13 4 10 20 11 15 14 11 7 19 31 24 23 23 24 24 19 25 30 26 22 23 21 24 20 22 24
21 23 24 26 27 29 30 31 32 33 35 38 40 41 43 38 30 21 22 15 16 15 23 21 29 34 41 35 16 16 29 25 26 28 26 22 28 27 26 25 26 28 25 24 23 23 19
22 23 25 27 28 29 30 32 34 36 38 40 41 41 42 36 22 18 14 19 22 23 14 23 31 30 33 28 27 20 29 31 29 30 30 28 19 27 26 26 28 28 27 24 22 22 19
23 23 24 27 28 29 30 33 36 39 40 41 44 43 38 33 8 21 17 23 24 20 8 11 13 11 27 25 29 27 30 30 27 32 30 27 32 29 27 29 26 26 27 25 25 21 18
21 23 24 26 27 30 33 36 38 40 41 41 42 39 30 20 19 15 25 26 23 12 8 8 9 6 11 28 9 35 32 31 32 25 31 30 26 30 28 28 26 24 24 25 25 23 19
20 21 23 24 26 28 32 34 37 39 41 42 44 35 25 15 16 16 25 24 16 6 10 8 11 22 9 26 32 11 32 28 28 26 28 31 26 25 25 25 26 24 22 23 23 18 17
19 20 22 25 27 29 30 33 35 38 42 45 45 35 21 17 10 24 22 12 7 9 16 18 27 28 27 19 28 30 31 31 28 31 28 29 34 29 27 22 25 22 21 14 14 16 16
18 20 22 24 26 28 30 33 36 39 43 45 47 32 18 16 19 20 18 10 11 13 25 31 24 26 23 20 18 27 26 28 33 30 17 23 26 36 23 31 25 28 25 15 22 17 17
18 20 22 23 25 28 30 33 36 40 44 47 44 23 18 4 19 15 9 10 7 18 16 20 27 20 22 29 22 19 31 30 32 34 32 23 30 31 33 26 26 23 25 24 21 20 16
18 20 22 23 24 26 29 32 35 40 44 46 31 23 24 11 17 17 10 15 9 10 18 20 21 21 23 26 24 25 17 25 27 33 31 28 18 30 33 26 28 27 22 21 17 20 19
18 19 21 22 23 26 28 30 33 38 44 39 16 7 9 16 17 10 10 13 20 17 19 17 18 20 18 20 20 24 10 10 24 18 31 30 24 22 29 31 27 22 21 25 19 16 14
18 19 20 21 22 24 27 30 32 35 40 30 12 8 15 14 12 8 9 10 7 16 20 17 13 15 10 17 14 16 19 12 30 28 16 34 23 21 27 27 30 28 28 25 13 22 15
19 20 20 21 22 23 25 28 30 32 33 30 9 12 7 18 7 10 14 15 17 13 20 11 18 15 17 13 10 14 17 27 30 28 14 12 19 20 26 23 29 32 29 26 22 18 19
20 21 22 23 23 23 24 26 28 28 29 23 6 7 9 9 11 16 15 15 18 8 15 13 12 14 16 13 13 9 17 15 28 28 15 8 10 21 19 21 19 27 29 28 25 17 16
22 23 24 24 24 24 24 24 25 24 24 16 4 5 9 8 12 14 16 14 19 18 7 14 17 10 14 15 13 9 16 26 25 22 23 8 13 19 29 24 22 26 27 29 30 21 22
24 25 25 26 26 24 24 24 22 20 20 10 3 4 7 13 17 15 12 7 14 16 12 16 17 15 16 14 11 14 16 15 10 22 20 19 8 13 17 22 19 18 31 29 29 29 23
24 25 26 26 26 26 25 24 21 17 12 5 1 7 5 9 14 12 11 15 16 17 14 15 11 18 19 15 15 15 17 15 17 21 18 14 12 9 16 17 21 19 16 28 26 24 24
25 26 26 27 28 27 26 24 21 17 11 11 6 3 3 7 13 13 19 17 14 12 15 16 20 16 21 16 18 17 20 18 18 17 14 12 12 9 11 13 18 12 13 13 21 23 23
27 28 29 29 29 28 26 23 22 18 15 16 11 7 2 4 11 18 16 16 17 15 13 18 15 20 14 17 13 15 16 14 17 18 14 10 10 7 6 8 9 13 14 16 9 15 20
30 30 31 30 29 28 25 24 23 20 17 18 18 20 4 4 8 18 13 20 12 11 12 14 8 13 13 11 9 14 5 12 12 14 13 11 10 7 9 6 12 6 14 3 16 9 21
31 32 32 31 30 27 26 24 22 20 18 17 13 21 6 3 8 16 11 9 12 11 8 10 11 17 10 5 8 11 9 10 6 17 13 11 9 11 8 6 3 13 19 9 13 6 16
33 33 33 32 29 28 27 25 22 20 18 17 13 13 14 3 8 18 20 16 13 8 7 11 8 4 3 4 4 6 6 7 7 4 7 11 11 10 11 9 2 22 11 8 8 12 16
34 34 34 31 30 29 27 24 22 20 17 17 9 12 23 5 6 18 21 26 29 25 12 5 9 13 3 4 5 5 12 7 13 7 9 6 4 7 12 11 4 10 7 7 11 10 12
Wind_Direction
25 20 17 15 13 11 9 7 4 2 359 357 357 355 351 348 345 342 339 336 330 325 320 310 289 271 250 221 244 256 286 203 192 196 208 220 212 215 220 229 230 240 187 190 164 280 240
20 17 15 13 11 9 7 4 2 360 358 357 356 353 350 347 344 340 336 333 329 325 319 310 287 217 227 247 250 227 178 168 187 198 209 222 218 222 227 232 237 236 227 180 234 233 221
17 15 13 11 8 8 6 4 2 1 360 357 356 352 349 346 343 338 336 333 329 323 318 309 245 206 237 236 258 231 192 196 198 201 209 218 222 219 226 231 246 250 248 260 237 246 237
14 12 10 8 6 7 6 4 2 0 358 357 355 351 348 345 342 338 335 327 325 317 326 299 208 205 254 261 238 256 216 198 204 203 214 217 219 234 233 242 245 249 253 239 231 232 229
11 8 7 5 4 6 5 4 1 358 356 355 353 351 347 345 341 339 331 327 317 293 323 183 167 213 261 231 228 216 218 206 200 198 213 226 216 230 231 229 241 242 233 235 245 199 220
7 5 3 3 4 6 4 1 358 356 354 353 351 349 346 343 342 336 333 333 316 277 255 217 267 218 243 236 207 215 208 211 199 197 207 225 215 217 227 216 222 230 216 232 226 220 209
4 2 2 2 3 3 3 1 359 356 353 351 348 347 344 340 342 335 332 344 355 177 324 282 248 239 286 244 265 192 201 206 205 201 207 206 217 215 215 223 225 235 223 226 233 224 207
2 2 3 2 2 1 1 359 358 357 354 351 349 347 345 340 340 324 326 17 360 303 299 275 263 263 262 272 262 214 196 199 202 204 203 202 223 217 221 217 228 231 243 235 225 234 214
2 5 3 1 1 360 358 357 357 356 354 351 348 346 342 338 336 342 339 359 333 324 290 286 247 242 236 234 242 215 193 200 201 205 202 213 215 222 219 220 222 223 228 240 244 228 244
3 3 360 360 358 356 356 356 355 353 351 349 347 345 340 337 336 324 354 335 329 327 287 272 210 248 222 220 226 234 193 202 207 211 208 216 222 200 216 220 219 222 225 238 248 248 227
2 360 357 357 355 355 354 354 353 350 348 346 343 344 336 336 298 323 336 327 324 296 292 88 121 8 194 201 167 212 206 205 212 204 210 212 215 221 207 219 215 228 219 226 243 252 257
360 357 356 354 353 354 352 352 351 346 344 342 339 339 329 337 291 306 323 321 297 242 247 350 35 348 250 203 233 220 209 203 213 220 216 227 210 221 217 208 222 218 230 218 225 242 242
353 356 354 354 354 353 349 350 348 345 342 341 335 330 306 293 292 328 326 307 275 245 294 355 340 337 324 291 217 242 190 200 204 215 213 215 227 215 225 218 207 212 216 213 212 215 230
356 354 355 355 353 353 350 349 347 344 341 340 332 321 277 255 317 323 310 289 271 289 353 337 337 315 296 293 289 223 224 208 211 215 212 212 213 218 207 217 201 207 212 213 212 214 219
353 351 352 352 352 354 353 351 347 345 342 340 332 321 280 235 331 313 287 291 27 332 319 319 323 306 344 346 344 294 225 212 207 220 220 205 222 202 228 210 214 199 214 217 227 220 224
352 350 348 348 350 351 352 350 348 346 343 342 323 297 272 336 320 294 281 283 343 290 307 313 313 319 321 321 326 333 290 219 214 209 233 241 219 224 203 215 216 228 197 217 228 240 226
347 347 348 349 350 350 350 349 349 349 346 348 307 295 46 341 305 273 289 344 333 330 342 333 309 316 336 337 320 315 321 318 352 231 210 239 245 227 220 206 207 207 208 209 228 235 239
339 340 342 344 347 349 348 346 348 349 352 354 306 304 349 338 303 349 350 339 311 344 296 325 312 317 344 328 314 312 317 324 335 321 285 212 236 245 231 209 206 212 216 201 220 216 245
332 334 336 339 341 345 344 344 346 348 353 341 307 298 6 354 324 337 335 336 320 336 323 329 327 340 330 309 322 316 330 318 312 324 352 352 230 227 241 213 193 212 206 223 207 233 222
328 329 330 333 334 338 340 341 344 346 349 346 297 321 345 332 355 338 334 320 327 4 341 312 324 323 309 333 320 318 337 319 317 307 325 295 261 240 226 224 202 193 212 207 222 210 227
324 324 326 327 328 332 335 338 341 345 346 340 302 317 346 307 328 317 311 352 325 303 214 322 317 322 309 320 323 293 305 319 331 325 332 274 259 247 237 234 214 194 209 212 211 217 218
322 323 323 323 324 329 331 334 336 342 340 297 331 336 330 295 292 305 306 302 289 337 334 310 316 310 310 311 342 312 322 316 308 317 334 329 282 269 258 251 258 257 197 213 210 221 208
322 321 322 321 322 325 327 329 329 333 340 311 339 305 296 285 297 299 309 316 317 327 320 306 239 293 301 326 306 289 288 268 268 283 310 318 340 307 247 251 253 244 228 198 217 207 220
324 323 323 321 321 322 323 322 322 321 307 281 251 206 268 275 283 300 316 317 318 311 307 305 300 319 308 305 302 289 273 255 253 265 275 296 311 302 271 266 242 239 228 253 219 215 212
323 321 319 319 321 319 318 315 312 311 301 282 249 174 224 265 281 291 302 317 322 295 295 289 323 296 317 304 300 296 279 241 241 241 254 274 289 298 265 240 227 230 229 220 242 203 218
323 320 320 321 320 316 313 310 308 307 302 289 261 224 177 281 248 270 289 305 308 325 313 312 228 279 292 283 288 259 277 320 208 223 224 248 248 278 309 275 217 220 250 225 211 222 0
322 320 320 320 316 312 310 309 308 306 299 287 273 233 168 237 265 267 267 293 314 303 287 300 337 316 27 298 287 272 268 321 266 212 181 205 247 236 239 268 28 324 350 117 204 36 8
322 321 319 317 315 312 309 310 310 306 301 289 275 247 201 223 275 268 277 278 294 286 294 317 323 340 64 311 329 349 18 326 294 33 334 189 186 236 238 241 212 2 20 38 63 38 29
321 320 318 317 317 314 312 313 310 308 300 297 273 250 231 213 264 304 293 276 272 264 278 288 292 316 323 353 354 316 311 286 0 324 147 238 298 212 233 227 38 10 10 42 33 43 20